User: anonymous   Login
Location: *
(46.0770°N, 1.6444°E)
Time: 16:31:00
(UTC+00:00)
Language:

Cosmos 614 Rocket - Orbit

View from above orbital plane
View from above orbital plane
View from above satellite
View from above satellite

Ground track
Ground track

The orbit data is extracted from the following two-line orbital elements,

1  6966U 73098B   19321.70547594 +.00000059 +00000-0 +25371-4 0  9997
2  6966 074.0579 023.1200 0020383 138.4944 221.7765 14.43011068412665
Epoch (UTC): 17 November 2019 16:55:53
Eccentricity: 0.0020383
inclination: 74.0579°
perigee height: 734 km
apogee height: 763 km
right ascension of ascending node: 23.1200°
argument of perigee: 138.4944°
revolutions per day: 14.43011068
mean anomaly at epoch: 221.7765°
orbit number at epoch: 41266

The dashed part of the orbit path shows where the satellite is in the earth's shadow,  

DLR